EHI
5 5 4 3 5 7 8 8 7 5 4 5 6 6 8 7 4 4 4 2 0 0 0 0 0 0 0 0 0 0 0 0 0 1 2 2 2 3
7 7 6 6 6 8 9 10 10 9 8 8 8 8 9 8 7 6 5 3 1 0 0 0 0 0 0 0 0 0 0 0 0 0 1 1 1 2
10 10 10 9 9 10 10 11 12 12 11 11 11 11 10 10 10 8 4 3 2 1 0 0 0 0 0 0 0 0 0 0 0 0 0 0 0 1
12 12 11 11 11 11 12 12 12 13 13 12 12 12 11 10 10 7 4 2 2 1 0 0 0 0 0 0 0 0 0 0 0 0 0 0 0 0
13 13 12 12 12 12 12 11 12 13 13 13 11 11 11 10 9 7 4 3 1 0 0 0 0 0 0 0 0 0 0 0 0 0 0 0 0 0
15 15 14 13 11 10 10 10 11 12 13 13 13 11 11 10 9 7 5 3 1 0 0 0 0 0 0 0 0 0 0 0 0 0 0 0 0 0
18 18 17 13 10 8 7 7 9 10 11 13 13 12 11 10 9 6 3 1 0 1 1 1 0 1 1 1 0 0 0 0 0 0 0 0 0 0
20 20 17 13 9 7 5 4 5 7 8 10 12 13 12 11 10 7 4 2 1 1 2 1 1 2 3 2 0 0 0 0 0 0 0 0 0 0
22 20 15 13 11 9 6 5 4 5 6 8 9 10 12 11 10 8 7 5 3 2 2 1 1 2 3 2 0 0 0 0 0 0 0 0 0 0
22 18 14 12 11 10 9 8 7 7 5 5 6 7 8 8 8 7 7 5 3 3 3 2 1 2 3 2 1 0 0 0 0 0 0 0 0 0
23 19 13 10 8 7 8 10 11 9 6 4 3 3 3 4 4 6 6 5 3 3 4 3 3 3 4 3 1 0 0 0 0 0 0 0 0 0
25 21 14 8 5 3 6 9 11 9 6 5 4 2 2 1 2 3 5 5 4 3 4 4 3 3 3 2 2 1 0 0 0 0 0 0 0 0
24 21 14 7 2 1 2 6 7 5 5 5 5 4 2 2 1 2 3 5 4 4 3 3 2 2 2 2 2 2 1 0 0 0 0 0 0 0
19 17 11 5 1 0 0 1 2 2 3 4 5 4 4 3 3 3 4 5 5 3 3 2 2 2 3 3 3 2 1 0 0 0 0 0 0 0
12 10 7 2 0 0 0 0 0 0 1 3 4 4 4 4 5 5 4 4 3 1 1 2 3 3 3 3 3 3 2 2 1 0 0 0 0 0
7 6 4 2 1 1 1 1 1 0 0 1 3 3 3 3 4 4 3 1 0 0 1 2 3 3 3 3 3 3 3 3 2 1 0 0 0 0
6 6 5 3 2 2 2 2 2 1 0 0 1 2 2 2 3 2 1 0 0 0 1 3 3 3 3 3 2 3 3 3 2 2 1 0 0 0
5 6 6 4 3 3 2 2 2 2 1 0 0 1 1 1 1 1 0 0 0 0 1 2 3 3 2 1 1 1 3 3 3 2 1 0 0 0
5 6 6 5 4 4 2 1 2 2 1 1 1 0 0 1 1 0 0 0 0 0 1 1 2 2 1 1 1 1 2 2 3 2 1 0 0 0
3 4 5 4 4 3 2 1 1 1 1 2 1 0 0 1 2 1 0 0 0 0 0 0 1 1 1 1 1 1 1 1 1 1 1 0 0 0
1 2 2 2 1 1 1 1 0 0 1 1 1 0 1 2 3 2 1 0 0 0 0 0 0 0 1 1 1 0 0 0 0 0 0 0 0 0
0 0 0 0 0 0 0 0 0 0 0 0 0 1 2 3 3 3 2 0 0 0 0 0 0 0 0 0 0 0 0 0 0 0 0 0 0 0
0 0 0 0 0 0 0 0 0 0 0 0 0 1 2 3 3 3 1 0 0 0 0 0 0 0 0 0 0 0 0 0 0 0 0 0 0 0
Wind_Speed
4 5 5 3 4 4 4 4 4 4 3 3 2 2 2 1 2 2 2 4 4 3 3 3 3 3 3 3 3 4 4 3 3 3 4 5 6 7
4 4 5 4 3 4 4 4 4 4 4 1 1 1 1 1 2 2 2 5 5 4 3 3 3 4 4 4 4 4 4 4 3 3 4 3 3 4
5 5 5 4 4 4 3 4 4 4 4 2 1 1 2 3 1 2 3 4 3 6 5 4 4 4 4 4 4 4 4 4 4 3 4 4 3 3
5 5 5 4 4 4 3 4 3 3 4 4 3 3 3 3 3 4 3 3 3 6 6 5 4 4 4 4 4 4 4 4 4 4 4 4 4 4
4 4 4 4 4 3 4 4 4 4 4 4 4 2 3 2 3 3 3 3 4 4 6 6 5 5 5 5 4 4 4 4 4 4 4 4 4 4
4 4 4 4 4 4 4 4 4 4 3 4 3 3 3 2 3 3 3 2 3 2 0 1 4 6 6 6 5 4 4 3 3 3 3 3 3 4
4 4 3 3 2 3 4 3 3 3 3 4 4 3 2 2 3 3 3 2 2 1 2 2 2 3 4 6 6 5 4 4 3 3 3 3 3 3
4 4 4 4 3 3 2 3 3 4 4 4 4 3 2 2 2 3 3 3 2 0 2 2 2 2 2 1 4 5 3 3 3 3 3 3 3 3
4 4 4 2 3 3 4 5 4 3 3 5 4 3 2 1 2 4 3 3 3 2 2 3 2 2 2 2 6 4 3 3 3 2 2 2 3 3
4 4 4 2 2 2 3 4 4 4 4 4 4 3 2 1 3 4 3 4 4 3 3 3 2 2 1 1 6 5 4 3 3 2 2 2 3 3
4 4 4 3 2 2 4 4 4 4 4 3 1 1 1 2 3 4 3 4 3 2 2 3 2 2 2 2 4 7 6 5 4 3 3 3 3 4
4 5 4 3 3 4 5 5 5 4 3 4 5 5 5 5 6 5 4 4 3 3 1 2 3 2 2 2 1 2 3 4 5 5 4 4 3 3
4 4 3 4 5 5 6 5 4 4 4 4 4 3 3 3 4 3 3 4 4 4 1 2 3 3 3 2 2 2 1 1 2 2 4 4 3 4
4 3 2 5 5 6 5 3 3 5 4 3 3 3 3 3 2 1 1 3 3 4 3 3 3 3 4 3 3 2 2 1 1 1 1 3 4 5
3 0 3 6 6 6 6 6 6 5 4 3 3 3 2 2 2 2 2 2 3 3 3 4 4 4 4 4 3 3 2 2 2 2 1 1 2 2
5 3 6 7 6 4 5 6 5 3 4 4 3 2 2 2 3 3 2 2 2 2 3 3 4 4 4 3 3 3 2 2 2 2 2 2 2 2
3 4 4 4 4 4 4 4 4 4 4 4 3 3 3 3 3 3 3 3 3 2 2 3 3 3 4 3 3 3 2 2 2 1 2 2 2 1
4 4 4 4 4 4 4 4 4 4 4 4 4 3 4 4 3 3 3 3 3 3 2 2 2 2 3 2 2 3 3 2 1 1 2 3 2 2
5 4 4 4 4 4 4 3 3 3 3 4 4 4 4 4 3 3 3 3 3 2 2 2 2 3 3 3 2 2 2 2 1 2 2 3 2 2
4 4 4 4 4 4 3 3 3 3 3 4 4 4 3 4 4 4 4 4 3 3 3 3 3 3 4 3 2 1 3 3 2 2 2 2 1 0
4 4 3 3 3 3 3 3 3 3 3 3 3 3 3 4 4 4 3 3 4 4 4 4 2 3 4 3 3 2 2 2 2 3 3 3 3 2
3 2 2 2 3 3 2 3 3 3 3 3 3 3 4 4 4 4 4 4 4 4 4 3 3 4 4 4 3 2 2 2 2 2 2 3 3 3
2 2 2 2 2 2 2 3 4 3 3 3 3 3 3 4 4 4 4 4 4 4 4 3 3 3 4 4 4 3 3 3 3 3 3 4 5 4
Wind_Direction
246 239 249 246 245 254 256 259 266 270 251 204 219 203 227 229 125 218 221 152 183 203 213 225 227 215 208 208 212 217 215 215 213 218 228 225 225 227
259 268 266 260 256 246 244 246 252 270 279 288 230 192 206 244 154 224 207 157 180 191 198 213 219 211 207 208 212 209 209 215 207 210 213 218 219 221
253 249 253 269 269 263 251 248 243 249 258 268 289 207 216 256 238 241 233 231 190 176 187 204 213 210 209 211 208 204 210 217 207 207 214 216 218 216
249 251 254 252 253 267 267 257 255 251 253 255 247 235 223 224 236 248 249 250 258 159 176 195 202 203 202 204 203 204 203 205 208 214 220 221 221 223
244 246 253 257 256 258 262 258 253 244 241 242 238 230 233 221 229 238 246 258 264 179 175 184 191 194 196 198 198 196 198 202 211 217 221 223 221 227
242 247 250 250 253 258 250 250 256 258 242 241 236 229 221 216 237 245 242 230 261 272 273 196 177 187 193 191 191 190 193 200 212 219 219 217 223 231
235 239 233 233 274 280 281 260 246 247 243 241 237 242 228 221 237 249 253 255 237 263 274 250 207 212 199 189 184 182 187 194 201 210 214 219 224 229
234 237 222 206 198 202 260 296 291 257 257 256 241 240 242 243 258 260 264 268 269 222 275 278 269 257 253 220 128 146 172 191 202 211 221 225 226 225
233 239 246 198 214 223 203 209 223 229 246 265 263 255 247 237 252 255 266 290 302 308 282 277 266 259 255 110 127 144 162 180 192 202 215 225 226 225
229 227 235 229 238 244 236 230 232 219 219 232 257 254 251 257 255 260 262 253 241 232 244 266 264 271 259 150 144 158 168 176 183 191 208 221 227 233
226 220 227 222 190 235 234 234 238 232 193 175 181 198 185 208 253 259 256 258 259 248 226 264 263 269 266 218 161 168 176 179 183 191 207 219 232 238
214 211 201 221 199 218 232 235 239 241 232 190 187 196 204 198 209 242 263 266 272 267 210 261 259 266 265 251 252 198 187 177 186 192 193 198 217 250
221 219 186 171 197 217 239 242 248 257 241 223 211 203 202 207 212 217 257 277 279 273 249 248 265 260 263 266 277 271 252 228 209 188 185 184 206 255
240 231 179 172 197 212 224 235 237 240 237 226 222 214 210 214 213 231 252 280 295 291 283 268 265 263 265 267 264 256 259 251 246 247 233 173 211 229
256 158 174 192 207 209 208 212 223 230 231 230 228 228 228 220 221 224 226 227 242 255 246 250 258 255 258 261 264 253 256 251 241 244 242 246 261 245
235 192 185 201 219 218 197 204 218 228 241 240 240 234 232 221 227 235 237 232 240 228 206 222 254 262 255 257 250 251 260 255 250 264 281 272 266 260
231 225 217 205 216 214 215 219 218 208 218 232 228 221 221 224 231 235 244 239 241 242 216 208 223 244 260 271 252 243 244 254 257 269 272 274 277 278
222 229 226 226 229 226 219 218 217 216 221 227 225 224 224 225 229 236 238 242 246 248 251 250 234 233 243 224 251 256 240 244 253 235 263 268 279 290
221 235 237 238 238 239 234 233 230 219 222 230 228 224 224 225 227 232 237 237 246 258 265 263 254 250 254 259 208 225 263 270 256 255 261 271 279 296
246 250 247 241 240 242 241 240 238 224 215 222 226 225 227 231 232 234 231 235 241 250 253 248 244 248 258 274 278 222 220 251 252 251 256 258 265 280
242 245 253 258 254 244 242 240 239 236 227 226 225 225 233 239 239 242 240 224 242 246 248 248 242 243 257 258 253 230 195 209 272 271 262 254 246 239
259 261 266 271 270 266 251 244 240 233 223 223 224 228 235 240 239 240 241 237 239 248 254 250 220 223 238 246 250 242 223 202 200 227 249 269 275 268
261 266 263 255 252 252 251 246 242 239 230 234 231 232 234 233 235 238 240 242 244 246 249 246 230 229 232 234 234 234 229 227 221 214 211 184 189 200